Find Starlink 31896

NORAD ID: 59851 Int'l Des: 2024-097 Owner: SPXS Country: US Constellation: starlink operational
LEOCIRCULAR

Live Position

Loading 3D Globe...

About Starlink 31896

Description loading...

Upcoming Passes

Passes for default location (London). Set your location on the main map for personalized predictions.

Altitude History

Loading altitude history...

Two-Line Element Set

1 59851U 24097S 26125.55389916 -.00000841 00000-0 -21042-4 0 9990
2 59851 43.0002 313.2008 0001396 297.7631 62.3079 15.27599479110614
Epoch: May 5, 2026 • Age: 14 hours

Current Status

Altitude 481.7 km
Velocity 7.63 km/s
Sub-Earth Point 9.96°N, 44.44°E
Launch Date May 23, 2024
Age 1.9 years
Type internet

Technical Details

Classification Payload
Mass 730.00 kg
Dry Mass 700.00 kg
Total Mass 730.00 kg
Length 0.30 m
Diameter 4.10 m
Span 29.00 m
Shape Box + pan
Manufacturer SPXS
Bus Type Starlink V2M
Phase Status In Orbit
Owner/State SPXS/US

Most Searched